[[{"header":{"parameterUnit":"m.s-1","parameterCategory":1,"la1":30.2992,"la2":30.254,"lo1":-89.0895,"lo2":-89.0443,"dy":0.0025,"dx":0.0025,"nx":19,"ny":19,"refTime":"2026-04-23T09:00:00:Z","depth":0,"parameterNumber":2,"parameterNumberName":"U-component_of_WINDS"},"data":[0,0,0,-4.4194,-4.4196,-4.4326,-4.4326,-4.449,-4.4492,0,0,0,0,0,0,0,0,0,0,0,-4.4154,-4.4155,-4.4193,-4.4197,-4.4326,-4.4326,-4.449,-4.4492,0,0,0,0,0,0,0,0,0,0,0,-4.4153,-4.4155,-4.4156,-4.4197,-4.4326,-4.4326,-4.449,-4.4393,0,0,0,0,0,0,0,0,0,0,-4.4267,-4.4229,-4.4154,-4.4156,-4.4198,-4.4325,-4.4326,-4.4388,-4.4399,-4.4431,0,-4.4459,0,-4.4478,-4.4502,-4.4503,0,0,0,-4.4198,-4.422,-4.4256,-4.4156,-4.4199,-4.4325,-4.4268,-4.4394,-4.4406,-4.4445,-4.4461,-4.4467,-4.448,-4.4503,-4.4504,-4.4685,-4.4686,0,0,-4.4191,-4.4176,-4.4248,-4.4264,-4.4244,-4.4264,-4.4272,-4.4401,-4.4418,-4.4461,-4.4471,-4.4483,-4.4505,-4.4506,-4.4685,-4.4686,0,0,0,-4.4169,-4.4171,-4.4204,-4.4257,-4.4281,-4.4267,-4.4277,-4.4412,-4.4424,-4.4473,-4.4485,-4.4505,-4.4507,-4.4684,-4.4685,-4.4709,0,0,0,-4.4165,-4.4159,-4.4201,-4.4194,-4.4278,-4.4348,-4.4284,-4.4415,-4.443,-4.4484,-4.4506,-4.4509,-4.4683,-4.4684,-4.4706,-4.4722,0,0,0,-4.4146,-4.4157,-4.4175,-4.4193,-4.4248,-4.4346,-4.4366,-4.4419,-4.4438,-4.4503,-4.4509,-4.4682,-4.4684,-4.4704,-4.4718,-4.4765,0,0,0,-4.4121,-4.4194,-4.4175,-4.4262,-4.4247,-4.436,-4.4365,-4.4451,-4.451,-4.4506,-4.4683,-4.4685,-4.4703,-4.4716,-4.4762,-4.4799,-4.4814,0,0,-4.4205,-4.4204,-4.4256,-4.4243,-4.4356,-4.4342,-4.446,-4.4527,-4.4547,-4.4638,-4.4643,-4.4707,-4.4718,-4.4764,-4.4905,-4.4916,0,0,0,-4.4278,-4.4315,-4.4349,-4.4404,-4.4458,-4.4506,-4.4557,-4.4583,-4.4661,-4.4591,-4.4738,-4.4745,-4.4772,-4.4791,-4.4801,-4.4825,-4.4693,-4.4693,-4.4693,-4.4374,-4.4396,-4.4484,-4.4522,-4.4577,-4.463,-4.4676,-4.472,-4.4726,-4.4761,-4.4787,-4.487,-4.4891,-4.4898,-4.4923,-4.481,-4.481,-4.4811,-4.4811,-4.4498,-4.4553,-4.4562,-4.4649,-4.4673,-4.4747,-4.4803,-4.4805,-4.4878,-4.4851,-4.4877,-4.4843,-4.491,-4.4933,-4.4813,-4.4812,-4.4812,-4.4812,-4.4812,-4.4561,-4.4592,-4.4622,-4.4706,-4.4769,-4.4806,-4.4876,-4.4895,-4.4914,-4.4939,-4.4969,-4.4969,-4.4969,-4.4953,-4.4953,-4.4953,-4.4954,-4.4954,-4.4954,-4.4614,-4.4648,-4.4704,-4.4769,-4.4808,-4.4862,-4.4919,-4.4958,-4.5007,-4.5015,-4.5016,-4.5018,-4.4913,-4.4885,-4.4958,-4.4958,-4.4957,-4.4957,-4.4956,-4.4727,-4.4705,-4.4791,-4.4831,-4.491,-4.497,-4.4996,-4.5075,-4.511,-4.5144,-4.5143,-4.5063,-4.5062,-4.5055,-4.5032,-4.5138,-4.5138,-4.5138,-4.5138,-4.4779,-4.4782,-4.4875,-4.4936,-4.4999,-4.5031,-4.5129,-4.5176,-4.522,-4.5243,-4.5232,-4.5204,-4.5195,-4.52,-4.5189,-4.5168,-4.5307,-4.5307,-4.5307,-4.4849,-4.4859,-4.4937,-4.498,-4.5044,-4.5099,-4.5192,-4.5263,-4.5309,-4.5314,-4.5262,-4.5255,-4.521,-4.5195,-4.5195,-4.5177,-4.5139,0,0]},{"header":{"parameterUnit":"m.s-1","parameterCategory":1,"la1":30.2992,"la2":30.254,"lo1":-89.0895,"lo2":-89.0443,"dy":0.0025,"dx":0.0025,"nx":19,"ny":19,"refTime":"2026-04-23T09:00:00:Z","depth":0,"parameterNumber":3,"parameterNumberName":"V-component_of_WINDS"},"data":[0,0,0,3.8139,3.8138,3.8102,3.8102,3.8058,3.8058,0,0,0,0,0,0,0,0,0,0,0,3.8154,3.8154,3.8139,3.8138,3.8102,3.8102,3.8058,3.8058,0,0,0,0,0,0,0,0,0,0,0,3.8154,3.8154,3.8154,3.8138,3.8102,3.8102,3.8058,3.8084,0,0,0,0,0,0,0,0,0,0,3.8119,3.8138,3.8154,3.8154,3.8138,3.8102,3.8102,3.8085,3.8082,3.8077,0,3.8075,0,3.8066,3.8055,3.8055,0,0,0,3.8134,3.814,3.8127,3.8154,3.8138,3.8102,3.8117,3.8083,3.808,3.8073,3.8075,3.8073,3.8065,3.8055,3.8055,3.8043,3.8043,0,0,3.8136,3.815,3.8129,3.8125,3.8134,3.8118,3.8116,3.8081,3.8083,3.8074,3.8072,3.8065,3.8055,3.8054,3.8043,3.8043,0,0,0,3.8145,3.8151,3.8138,3.8127,3.812,3.8117,3.8115,3.8085,3.8079,3.8071,3.8064,3.8054,3.8054,3.8042,3.8043,3.8064,0,0,0,3.8146,3.8156,3.8139,3.8147,3.8121,3.8103,3.8119,3.8082,3.8077,3.8064,3.8054,3.8054,3.8042,3.8043,3.8063,3.8071,0,0,0,3.8155,3.8157,3.8154,3.8148,3.8133,3.8103,3.8095,3.8081,3.8073,3.8055,3.8054,3.8042,3.8042,3.8062,3.8069,3.8071,0,0,0,3.8168,3.8172,3.8154,3.8155,3.8134,3.8117,3.8096,3.8082,3.8069,3.8054,3.8042,3.8043,3.8062,3.8068,3.8071,3.8075,3.8079,0,0,3.818,3.8174,3.8173,3.8156,3.8147,3.8122,3.8114,3.8088,3.8072,3.8053,3.8052,3.8063,3.8069,3.8071,3.8095,3.8098,0,0,0,3.8181,3.8181,3.8175,3.8165,3.8147,3.8131,3.8105,3.8095,3.8079,3.8066,3.8064,3.8067,3.8068,3.8069,3.8072,3.8071,3.8044,3.8044,3.8044,3.8216,3.8198,3.8196,3.8174,3.8163,3.8137,3.8126,3.8108,3.8091,3.8091,3.8085,3.8103,3.8105,3.8107,3.8106,3.8087,3.8087,3.8087,3.8087,3.8231,3.8227,3.8207,3.8197,3.8177,3.8168,3.8142,3.8131,3.8118,3.8106,3.8105,3.8093,3.8111,3.8109,3.8088,3.8088,3.8088,3.8088,3.8088,3.8251,3.8246,3.8236,3.8219,3.8208,3.8184,3.8173,3.8155,3.8137,3.8137,3.8128,3.8128,3.8124,3.8134,3.8134,3.8134,3.8134,3.8134,3.8134,3.8276,3.8264,3.8258,3.824,3.8231,3.8216,3.819,3.8179,3.8163,3.815,3.815,3.8133,3.8117,3.8113,3.8135,3.8135,3.8135,3.8135,3.8135,3.8296,3.8289,3.8281,3.8272,3.8248,3.8238,3.8215,3.8196,3.8184,3.8179,3.8162,3.8153,3.8144,3.8142,3.8139,3.8167,3.8167,3.8167,3.8167,3.8313,3.8308,3.8295,3.8282,3.8267,3.8246,3.8234,3.8214,3.819,3.8181,3.8175,3.8169,3.8167,3.8159,3.8157,3.8153,3.8184,3.8184,3.8184,3.8325,3.8317,3.8312,3.8292,3.8272,3.8255,3.8243,3.8227,3.8198,3.8184,3.8174,3.8173,3.8163,3.8161,3.8146,3.8143,3.8135,0,0]}]]